Flag for Germany Weather past 2 weeks in Tönisvorst, North Rhine-Westphalia, Germany

Now
77 °F

Passing clouds.


Feels Like: 79 °F
Forecast: 54 / 63 °F
Wind: 6 mph from West

Location: Monchengladbach Airport

Current Time: Sep 20, 2014 at 6:34:09 PM

Latest Report: Sep 20, 2014 at 3:20 PM


Visibility: N/A

Pressure: 29.92 "Hg

Humidity: 65%

Dew point: 64 °F

Location of TönisvorstLocation

Historic Weather in Tönisvorst — Graph

°F

Tönisvorst temperature yesterday

Maximum temperature yesterday: 77 °F (at 4:20 PM)
Minimum temperature yesterday: 59 °F (at 7:50 AM)
Average temperature yesterday: 71 °F

Past Weeks' High & Low Weather Summary

 TemperatureHumidityPressure
High77 °F (Sep 5, 4:50 PM)100% (Sep 6, 7:50 AM)30.24 "Hg (Sep 6, 7:50 AM)
Low48 °F (Sep 12, 7:50 AM)47% (Sep 17, 5:50 PM)29.80 "Hg (Sep 18, 7:50 PM)
Average66 °F76%30.02 "Hg
* Reported Sep 5 3:20 PM — Sep 20 3:20 PM, Tönisvorst, Weather by CustomWeather, © 2014

Note: Actual official high and low records may vary slightly from our data, if they occured in-between our weather recording intervals... More about our weather records

Advertising

Tönisvorst weather history for previous 24 hours

 ConditionsComfort  
Time TempWeatherWind HumidityBarometerVisibility
3:20 PM
Sep 20
77 °FPassing clouds.6 mph65%29.92 "HgN/A
2:50 PM75 °FPassing clouds.6 mph65%29.92 "Hg6 mi
2:20 PM73 °FPassing clouds.5 mph74%29.95 "Hg4 mi
1:50 PM72 °FPassing clouds.6 mph78%29.95 "Hg4 mi
1:20 PM72 °FPassing clouds.5 mph78%29.95 "Hg4 mi
12:50 PM70 °FPassing clouds.5 mph83%29.95 "Hg4 mi
12:20 PM70 °FPassing clouds.2 mph83%29.95 "Hg4 mi
11:50 AM70 °FScattered clouds.3 mph83%29.95 "Hg4 mi
11:20 AM70 °FPassing clouds.3 mph83%29.95 "Hg4 mi
10:50 AM68 °FScattered clouds.3 mph88%29.95 "Hg4 mi
10:20 AM66 °FScattered clouds.3 mph94%29.95 "Hg4 mi
9:50 AM63 °FPartly sunny.5 mph100%29.95 "Hg4 mi
9:20 AM63 °FPartly sunny.2 mph100%29.95 "Hg4 mi
8:50 AM61 °FFog.3 mph100%29.92 "Hg2 mi
8:20 AM59 °FFog.2 mph100%29.92 "Hg2 mi
7:50 AM59 °FFog.3 mph100%29.92 "Hg2 mi
7:50 PM
Sep 19
68 °FClear.3 mph83%29.86 "Hg10 mi
7:20 PM72 °FPassing clouds.2 mph78%29.86 "HgN/A
6:50 PM73 °FPassing clouds.2 mph74%29.86 "HgN/A
6:20 PM75 °FPassing clouds.3 mph65%29.86 "HgN/A
Weather by CustomWeather, © 2014

See weather overviewHow to use our weather pages